Regional Weather Roundup
Issued by NWS Charleston, WV

Home | Current Version | Previous Version | Graphics & Text | Print | Product List | Glossary On
Versions: 1 2 3 4 5 6 7 8 9 10 11 12 13 14 15 16 17 18 19 20 21 22 23 24 25 26 27 28 29 30 31 32 33 34 35 36 37 38 39 40 41 42 43 44 45 46 47 48 49 50
000
ASUS41 KRLX 161510
RWRRLX
West Virginia Regional Weather Roundup
National Weather Service Charleston WV
1000 AM EST MON JAN 16 2017

Note: "fair" indicates few or no clouds below 12,000 feet with no
significant weather and/or obstructions to visibility.

WVZ003-161600-
Northern Panhandle of West Virginia

CITY           SKY/WX    TMP DP  RH WIND       PRES   REMARKS
WHEELING       CLOUDY    32  25  75 NE3       30.33R
$$

WVZ009-161600-
Northwest West Virginia

CITY           SKY/WX    TMP DP  RH WIND       PRES   REMARKS
PARKERSBURG    CLOUDY    38  34  85 CALM      30.35S
$$

WVZ006-161600-
Western West Virginia

CITY           SKY/WX    TMP DP  RH WIND       PRES   REMARKS
HUNTINGTON     FOG       41  40  96 CALM      30.32R VSB 1
$$

WVZ015-161600-
West Central West Virginia

CITY           SKY/WX    TMP DP  RH WIND       PRES   REMARKS
CHARLESTON     CLOUDY    43  41  93 CALM      30.31S FOG
$$

WVZ022-031-161600-
North Central West Virginia

CITY           SKY/WX    TMP DP  RH WIND       PRES   REMARKS
CLARKSBURG     CLOUDY    36  32  85 CALM      30.33S
MORGANTOWN     CLOUDY    34  29  82 CALM      30.33S
$$

WVZ025-035-042-045-161600-
Southern West Virginia

CITY           SKY/WX    TMP DP  RH WIND       PRES   REMARKS
BECKLEY        CLOUDY    49  47  93 SE6       30.33R
LOGAN          CLOUDY    48  48 100 CALM      30.30S
BLUEFIELD      CLOUDY    48  46  93 CALM      30.34R
LEWISBURG      FOG       43  43  99 CALM      30.36R VSB 1
$$

WVZ047-161600-
Northern Mountains of West Virginia

CITY           SKY/WX    TMP DP  RH WIND       PRES   REMARKS
ELKINS         CLOUDY    40  37  89 CALM      30.33R FOG
$$

WVZ052-161600-
Eastern Panhandle of West Virginia

CITY           SKY/WX    TMP DP  RH WIND       PRES   REMARKS
MARTINSBURG    CLOUDY    35  25  66 NE3       30.43S
PETERSBURG     CLOUDY    39  31  73 CALM      30.41S
$$



USA.gov is the U.S. government's official web portal to all federal, state and local government web resources and services.